Overview Statistics Trail Chart Weather Telemetry Raw packets
 

This is the latest recevied weather packets stored in our database for station/object KGRR-WX. If no packets are shown the sender has not sent any weather packets the latest 10 day(s).

<< 10 11 12 13 14 15 16 >>
Time Temp. Humidity Pressure Rain* Wind** Luminosity Snow
1788375606 32.78° C 44% 985.3 hPa 0 mm - - -
1788374704 32.78° C 48% 986.1 hPa 0 mm - - -
1788373804 32.78° C 48% 986.1 hPa 0 mm - - -
1788372905 32.22° C 48% 986.1 hPa 0 mm - - -
1788372005 31.67° C 48% 986.1 hPa 0 mm - - -
1788371104 31.67° C 55% 986.3 hPa 0 mm - - -
1788370205 31.67° C 55% 986.3 hPa 0 mm - - -
1788369328 31.67° C 55% 986.4 hPa 0 mm - - -
1788368409 31.11° C 55% 986.4 hPa 0 mm - - -
1788367512 30.56° C 59% 986.3 hPa 0 mm - - -
1788366605 31.11° C 59% 986.4 hPa 0 mm - - -
1788365712 30.56° C 59% 986.4 hPa 0 mm - - -
1788364806 30° C 61% 986.3 hPa 0 mm - - -
1788363912 30° C 66% 986.9 hPa 0 mm - - -
1788363010 28.89° C 66% 985.9 hPa 0 mm - - -
1788362109 28.89° C 66% 985.9 hPa 0 mm - - -
1788361211 28.33° C 66% 985.9 hPa 0 mm - - -
1788360305 27.78° C 70% 986.5 hPa 0 mm - - -
1788359409 27.78° C 67% 986.4 hPa 0 mm - - -
1788358513 27.78° C 67% 986.4 hPa 0 mm - - -
1788357608 27.22° C 67% 986.4 hPa 0 mm - - -
1788356709 27.22° C 77% 985.6 hPa 0 mm - - -
1788355810 26.67° C 77% 985.6 hPa 0 mm - - -
1788354912 26.11° C 77% 985.6 hPa 0 mm - - -
1788354010 25.56° C 77% 985.6 hPa 0 mm - - -

* Rain latest hour (hover to see other rain measurements)
** Current wind speed in m/s (hover to see current wind gust speed)